Regional Weather Roundup
Issued by NWS Cleveland, OH

Home | Current Version | Previous Version | Text Only | Print | Product List | Glossary Off
Versions: 1 2 3 4 5 6 7 8 9 10 11 12 13 14 15 16 17 18 19 20 21 22 23 24 25 26 27 28 29 30 31 32 33 34 35 36 37 38 39 40 41 42 43 44 45 46 47 48 49 50

000
ASUS41 KCLE 021900
RWRCLE
OHIO REGIONAL WEATHER ROUNDUP
NATIONAL WEATHER SERVICE WILMINGTON, OH
300 PM EDT WED SEP 02 2015

NOTE: "FAIR" INDICATES FEW OR NO CLOUDS BELOW 12,000 FEET WITH NO
SIGNIFICANT WEATHER AND/OR OBSTRUCTIONS TO VISIBILITY.

OHZ001>008-015>018-024>027-034-035-043-044-022000-
   NORTHWEST OHIO

CITY           SKY/WX    TMP DP  RH WIND       PRES   REMARKS
DEFIANCE       MOSUNNY   91  68  46 W10G17    30.03F HX  95
FINDLAY        SUNNY     88  71  57 W9        30.03F HX  94
TOLEDO EXPRESS SUNNY     86  72  62 VRB7      30.02F HX  92
TOLEDO EXEC    SUNNY     86  71  60 SW8       30.03F HX  91
LIMA           MOSUNNY   87  70  56 SW10      30.05F HX  92
$$

OHZ009>014-019>023-028>033-038-089-022000-
   NORTHEAST OHIO

CITY           SKY/WX    TMP DP  RH WIND       PRES   REMARKS
CLE-HOPKINS    MOSUNNY   85  71  63 W5        30.04F HX  90
CLE-LAKEFRONT  SUNNY     82  71  69 NW5       30.01F
CUY CO. ARPT   PTSUNNY   86  72  62 W12       30.04F HX  92
LORAIN-ELYRIA  MOSUNNY   86  70  58 VRB7      30.03F HX  90
ASHTABULA      MOSUNNY   84  71  65 NW13      30.04F
AKRON-CANTON   MOSUNNY   89  64  43 NW7       30.05F HX  90
WOOSTER        NOT AVBL
MANSFIELD      CLOUDY    72  67  84 W8        30.08F
YOUNGSTOWN     MOSUNNY   87  64  46 W9        30.04F
$$

OHZ042-051>053-060>062-070>072-077>081-022000-
  SOUTHWEST OHIO

CITY           SKY/WX    TMP DP  RH WIND       PRES   REMARKS
CINC-COVINGTON MOSUNNY   88  67  49 W5        30.08F HX  91
CINC-LUNKEN    MOSUNNY   89  67  47 CALM      30.06F HX  92
HAMILTON       MOSUNNY   89  69  51 MISG      30.07F HX  93
DAYTON         NOT AVBL
WRIGHT-PAT AFB NOT AVBL
DAYTON GENERAL PTSUNNY   84  72  67 S6        30.08F
WILMINGTON     MOSUNNY   79  68  69 CALM      30.09F
$$

OHZ036-037-039>041-045>050-054>059-063>069-073>076-082>088-022000-
  CENTRAL AND SOUTHEAST OHIO

CITY           SKY/WX    TMP DP  RH WIND       PRES   REMARKS
COLUMBUS       PTSUNNY   85  69  58 W7        30.06F
OSU AIRPORT    LGT RAIN  84  70  62 W9        30.06F
BOLTON FIELD   SUNNY     82  72  69 W8        30.08F
RICKENBACK AFB NOT AVBL
NEWARK         MOSUNNY   86  70  58 W13       30.06F HX  90
MARION         PTSUNNY   75  67  76 SE10      30.08R
LANCASTER      SUNNY     85  67  54 W8        30.07F
ZANESVILLE     MOSUNNY   88  63  43 VRB7      30.05F
NEW PHILLY     MOSUNNY   88  66  48 W6        30.04F HX  90
$$



USA.gov is the U.S. government's official web portal to all federal, state and local government web resources and services.